Wind_Speed
32 31 28 22 20 25 27 25 23 22 20 17 15 15 15 15 13 13 12 10 7 5
33 32 32 27 21 22 27 28 27 25 23 22 18 16 17 17 17 16 14 13 11 10
38 35 33 31 27 21 24 30 30 27 24 23 22 18 18 17 17 17 17 16 15 13
40 37 34 34 32 28 21 25 28 30 27 25 24 23 20 19 18 18 17 18 16 15
41 40 38 37 36 33 29 26 23 25 25 28 29 27 24 22 20 20 18 17 17 16
37 39 42 41 39 36 33 31 28 23 28 30 28 31 29 25 23 22 21 19 17 18
38 41 42 42 41 41 39 36 33 30 27 30 29 27 31 29 27 27 25 23 22 21
37 40 41 40 41 42 42 41 38 34 31 29 31 30 32 32 31 30 30 28 26 25
33 34 36 39 40 40 42 44 41 40 37 36 32 32 33 34 34 33 32 31 29 28
30 30 30 33 35 37 39 39 40 43 43 41 41 38 35 33 35 37 37 35 33 32
29 35 35 32 36 38 35 37 39 38 38 43 45 44 42 38 38 39 39 38 36 34
32 30 32 35 33 33 31 33 35 36 36 37 39 41 44 40 39 41 42 42 39 38
9 29 30 32 33 31 32 34 32 33 36 39 38 38 39 41 41 38 39 40 43 43
12 11 14 20 31 32 36 32 31 31 33 35 38 39 40 41 43 37 34 34 33 38
Wind_Direction
212 216 220 231 235 229 228 229 227 224 227 229 223 220 213 216 216 220 226 232 232 252
210 220 224 227 235 239 235 233 235 232 233 234 233 228 227 228 231 232 233 237 248 256
210 216 225 230 231 239 242 235 238 239 237 237 237 237 234 237 237 240 240 245 250 254
212 215 220 228 233 235 243 241 244 243 242 241 239 240 240 240 239 240 245 244 249 254
214 215 219 226 232 234 237 243 244 242 243 248 244 241 242 244 242 241 244 247 250 254
212 215 220 225 229 234 237 239 243 249 243 245 250 240 239 244 246 246 249 250 255 260
211 218 221 226 231 230 234 237 240 242 243 241 244 241 236 241 245 247 250 254 257 263
213 218 223 225 228 233 233 235 238 240 240 242 242 238 234 239 244 248 251 253 255 259
212 213 219 224 225 227 233 235 238 239 241 240 242 242 239 240 244 247 250 255 259 261
212 213 218 222 225 227 227 233 233 238 239 241 244 243 242 243 245 248 251 255 261 265
212 214 217 218 222 227 226 228 231 233 234 239 242 245 246 246 243 245 249 255 260 265
214 210 212 215 218 224 222 226 228 231 231 232 236 239 243 243 241 242 248 255 258 264
197 209 213 218 219 220 223 227 227 229 232 236 236 235 237 238 237 238 245 252 258 261
274 267 233 233 226 221 223 224 226 228 230 233 237 237 237 236 234 233 239 243 247 255
Height
830 834 839 844 846 849 852 853 856 858 860 862 864 865 867 869 870 871 871 872 873 873
825 831 836 840 844 846 849 851 853 856 858 860 863 864 866 867 869 870 870 870 871 872
818 825 831 836 840 843 845 848 850 853 856 858 860 862 864 865 867 868 868 868 869 870
813 819 825 830 835 839 843 845 848 850 853 855 856 859 861 863 865 866 867 868 868 868
809 813 818 823 828 834 838 842 844 846 849 851 853 856 858 860 863 865 865 866 867 866
804 807 810 815 820 827 832 836 840 842 844 847 849 851 855 857 859 861 863 864 864 863
797 801 804 808 813 818 823 829 833 837 840 842 845 847 850 853 855 857 859 860 860 860
790 794 798 801 806 811 815 820 825 831 835 838 840 842 845 847 850 852 853 854 855 856
785 789 792 795 798 803 808 812 817 821 827 831 834 837 840 843 845 846 848 848 849 850
782 785 788 791 794 796 800 805 808 812 817 821 825 830 834 837 839 840 841 843 843 843
774 776 781 785 786 789 793 797 800 803 808 810 813 819 825 830 832 833 834 835 836 837
767 770 773 776 778 782 787 790 792 795 799 802 804 808 815 821 824 825 826 828 829 830
764 764 766 768 771 774 779 782 785 787 790 793 797 801 804 810 814 816 817 820 819 820
762 764 763 762 764 766 771 775 778 780 782 785 788 791 795 799 803 805 808 809 810 810